Terminal Aerodrome Forecast
Issued by NWS

Home | Current Version | Previous Version | Text Only | Print | Product List | Glossary On
Versions: 1 2 3 4 5 6 7 8 9 10 11 12 13 14 15 16 17 18 19 20 21 22 23 24 25 26 27 28 29 30 31
000
FTUS45 KBOI 312338
TAFBKE
TAF
KBKE 312338Z 0100/0124 VRB06KT P6SM BKN100
      TEMPO 0106/0110 VRB10G20KT P6SM TSRA SCT080CB BKN120=

USA.gov is the U.S. government's official web portal to all federal, state and local government web resources and services.